Karlovy Vary, Czech Republic

7:35 PM CEST on July 29, 2016 (GMT +0200)
Karlovy Vary

Weather History for LKKV - May, 2013

Change the Weather History Date:

Thursday, May 16, 2013

  Actual Average (EDQM) Record (EDQM)
Temperature  
Mean Temperature 59 °F -  
Max Temperature 68 °F 61 °F 78 °F (1997)
Min Temperature 50 °F 44 °F 30 °F (2003)
Degree Days  
Heating Degree Days 6    
Growing Degree Days 9 (Base 50)    
Moisture  
Dew Point 49 °F    
Average Humidity 65    
Maximum Humidity 87    
Minimum Humidity 49    
Precipitation  
Precipitation 0.00 in - - ()
Sea Level Pressure  
Sea Level Pressure 29.52 in    
Wind  
Wind Speed 9 mph ()    
Max Wind Speed 18 mph    
Max Gust Speed -    
Visibility 6.2 miles    
Events Rain    
Averages and records for this station are not official NWS values.
T = Trace of Precipitation, MM = Missing Value Source: Averaged Metar Reports

Daily Weather History Graph

Daily Weather History Graph

Search for Another Location

Airport or City:

Trip Planner

Search our weather history database for the weather conditions in past years. The results will help you decide how hot, cold, wet, or windy it might be!

Date:

Astronomy

May. 16, 2013 Rise Set
Actual Time 5:20 AM CEST 8:50 PM CEST
Civil Twilight 4:40 AM CEST 9:30 PM CEST
Nautical Twilight 3:47 AM CEST 10:24 PM CEST
Astronomical Twilight 2:33 AM CEST 11:39 PM CEST
Moon 10:46 AM CEST (5/16) 12:52 AM CEST (5/16)
Length of Visible Light 16h 49m
Length of Day
15h 29m
Waxing Crescent, 33% of the Moon is Illuminated
May 16
Waxing Crescent
May 18
First Quarter
May 25
Full
May 31
Last Quarter
Jun 8
New

Hourly Weather History & Observations

Time (CEST) Temp. Dew Point Humidity Pressure Visibility Wind Dir Wind Speed Gust Speed Precip Events Conditions
12:00 AM 55.4 °F 48.2 °F 77% 29.62 in - NNE 4.6 mph - N/A   Clear
1:00 AM 55.4 °F 48.2 °F 77% 29.62 in - NE 6.9 mph - N/A   Clear
2:00 AM 53.6 °F 48.2 °F 82% 29.62 in - NNE 9.2 mph - N/A   Clear
3:00 AM 53.6 °F 48.2 °F 82% 29.62 in - ENE 9.2 mph - N/A   Clear
4:00 AM 53.6 °F 48.2 °F 82% 29.59 in - NE 12.7 mph - N/A   Clear
5:00 AM 53.6 °F 48.2 °F 82% 29.59 in - ENE 10.4 mph - N/A   Clear
6:00 AM 50.0 °F 46.4 °F 87% 29.59 in - East 5.8 mph - N/A   Clear
7:00 AM 55.4 °F 48.2 °F 77% 29.59 in - NE 3.5 mph - N/A   Clear
8:00 AM 55.4 °F 50.0 °F 82% 29.56 in 6.2 mi NE 9.2 mph - N/A   Partly Cloudy
8:30 AM 55.4 °F 50.0 °F 82% 29.56 in 6.2 mi ENE 8.1 mph - N/A   Partly Cloudy
9:00 AM 57.2 °F 50.0 °F 77% 29.56 in 6.2 mi NE 6.9 mph - N/A   Partly Cloudy
9:30 AM 59.0 °F 50.0 °F 72% 29.56 in 6.2 mi NE 6.9 mph - N/A   Partly Cloudy
10:00 AM 59.0 °F 51.8 °F 77% 29.56 in - NE 9.2 mph - N/A   Clear
10:30 AM 60.8 °F 50.0 °F 68% 29.53 in 6.2 mi NE 10.4 mph - N/A   Partly Cloudy
11:00 AM 60.8 °F 51.8 °F 72% 29.53 in 6.2 mi ENE 11.5 mph - N/A   Partly Cloudy
11:30 AM 62.6 °F 50.0 °F 63% 29.53 in 6.2 mi ESE 13.8 mph - N/A   Partly Cloudy
12:00 PM 62.6 °F 50.0 °F 63% 29.53 in 6.2 mi ESE 13.8 mph - N/A   Partly Cloudy
12:30 PM 64.4 °F 51.8 °F 64% 29.50 in 6.2 mi East 13.8 mph - N/A   Partly Cloudy
1:00 PM 64.4 °F 51.8 °F 64% 29.50 in 6.2 mi East 13.8 mph - N/A   Partly Cloudy
1:30 PM 66.2 °F 50.0 °F 56% 29.50 in 6.2 mi ESE 15.0 mph - N/A   Partly Cloudy
2:00 PM 66.2 °F 48.2 °F 52% 29.50 in 6.2 mi East 17.3 mph - N/A   Partly Cloudy
2:30 PM 66.2 °F 50.0 °F 56% 29.50 in 6.2 mi East 17.3 mph - N/A   Partly Cloudy
3:00 PM 66.2 °F 48.2 °F 52% 29.47 in 6.2 mi ESE 18.4 mph - N/A   Partly Cloudy
3:30 PM 66.2 °F 48.2 °F 52% 29.47 in 6.2 mi ESE 18.4 mph - N/A   Partly Cloudy
4:00 PM 68.0 °F 50.0 °F 52% 29.47 in 6.2 mi ESE 16.1 mph - N/A   Partly Cloudy
4:30 PM 68.0 °F 48.2 °F 49% 29.44 in - SE 16.1 mph - N/A   Clear
5:00 PM 66.2 °F 46.4 °F 49% 29.44 in - ESE 12.7 mph - N/A   Clear
5:30 PM 66.2 °F 48.2 °F 52% 29.44 in - ESE 12.7 mph - N/A   Clear
6:00 PM 66.2 °F 46.4 °F 49% 29.44 in 6.2 mi ESE 13.8 mph - N/A Rain Light Rain
6:30 PM 66.2 °F 46.4 °F 49% 29.44 in - SE 15.0 mph - N/A   Clear
7:00 PM 64.4 °F 48.2 °F 56% 29.44 in - SE 12.7 mph - N/A   Clear
7:30 PM 64.4 °F 48.2 °F 56% 29.44 in - SE 11.5 mph - N/A   Clear
8:00 PM 64.4 °F 48.2 °F 56% 29.44 in - ESE 12.7 mph - N/A   Clear
8:30 PM 62.6 °F 48.2 °F 59% 29.47 in - ESE 11.5 mph - N/A   Clear
9:00 PM 62.6 °F 46.4 °F 55% 29.47 in - SE 12.7 mph - N/A   Clear
10:00 PM 59.0 °F 46.4 °F 63% 29.47 in - East 11.5 mph - N/A   Clear
11:00 PM 57.2 °F 46.4 °F 67% 29.47 in - East 8.1 mph - N/A   Clear